Change the Weather History Date:

Tuesday, December 10, 2013

  Actual Average Record
Temperature  
Mean Temperature 30 °F -  
Max Temperature 35 °F 40 °F 62 °F (2008)
Min Temperature 25 °F 25 °F 8 °F (2010)
Degree Days  
Heating Degree Days 34    
Moisture  
Dew Point 28 °F    
Average Humidity 84    
Maximum Humidity 96    
Minimum Humidity 53    
Precipitation  
Precipitation 0.04 in - - ()
Sea Level Pressure  
Sea Level Pressure 29.83 in    
Wind  
Wind Speed 7 mph (WSW)    
Max Wind Speed 15 mph    
Max Gust Speed 22 mph    
Visibility 5 miles    
Events Fog , Snow    
Averages and records for this station are not official NWS values.
T = Trace of Precipitation, MM = Missing Value Source: NWS Daily Summary

Daily Weather History Graph

Daily Weather History Graph

Search for Another Location

Airport or City:

Trip Planner

Search our weather history database for the weather conditions in past years. The results will help you decide how hot, cold, wet, or windy it might be!

Date:

Astronomy

Dec. 10, 2013 Rise Set
Actual Time 7:02 AM EST 4:10 PM EST
Civil Twilight 6:30 AM EST 4:42 PM EST
Nautical Twilight 5:55 AM EST 5:17 PM EST
Astronomical Twilight 5:21 AM EST 5:51 PM EST
Moon 12:16 PM EST (12/10) 12:10 AM EST (12/10)
Length of Visible Light 10h 11m
Length of Day
9h 07m
First Quarter, 61% of the Moon is Illuminated
Dec 10
First Quarter
Dec 17
Full
Dec 25
Last Quarter
Jan 1
New
Jan 7
First Quarter

Hourly Weather History & Observations

Time (EST) Temp. Windchill Dew Point Humidity Pressure Visibility Wind Dir Wind Speed Gust Speed Precip Events Conditions
12:45 AM 33.1 °F 28.7 °F 32.0 °F 96% 29.89 in 8.0 mi West 4.6 mph - N/A   Scattered Clouds
12:53 AM 33.1 °F 28.7 °F 32.0 °F 96% 29.88 in 8.0 mi West 4.6 mph - N/A   Partly Cloudy
1:53 AM 32.0 °F 27.5 °F 30.0 °F 92% 29.88 in 10.0 mi WSW 4.6 mph - N/A   Clear
2:53 AM 33.1 °F 26.9 °F 30.9 °F 92% 29.88 in 10.0 mi WSW 6.9 mph - N/A   Clear
3:53 AM 32.0 °F 26.4 °F 30.0 °F 92% 29.87 in 10.0 mi SW 5.8 mph - N/A   Clear
4:53 AM 33.1 °F 26.1 °F 30.9 °F 92% 29.89 in 10.0 mi West 8.1 mph - N/A   Clear
5:53 AM 35.1 °F 28.6 °F 30.0 °F 82% 29.90 in 10.0 mi WSW 8.1 mph - N/A   Clear
6:53 AM 34.0 °F 28.8 °F 28.9 °F 82% 29.88 in 10.0 mi WSW 5.8 mph - N/A   Clear
7:53 AM 35.1 °F 31.0 °F 28.9 °F 78% 29.91 in 10.0 mi West 4.6 mph - N/A   Overcast
8:53 AM 35.1 °F 28.6 °F 28.0 °F 76% 29.91 in 10.0 mi SSW 8.1 mph - N/A   Overcast
9:53 AM 35.1 °F 32.2 °F 28.9 °F 78% 29.88 in 10.0 mi SW 3.5 mph - N/A   Overcast
10:53 AM 35.1 °F 27.4 °F 26.1 °F 70% 29.87 in 2.0 mi West 10.4 mph 17.3 mph 0.00 in Snow Light Snow
11:00 AM 34.0 °F 27.2 °F 27.0 °F 75% 29.86 in 2.5 mi WSW 8.1 mph - 0.00 in Snow Light Snow
11:19 AM 33.1 °F 28.7 °F 28.0 °F 82% 29.85 in 1.0 mi WSW 4.6 mph - 0.00 in Snow Light Snow
11:29 AM 33.1 °F 28.7 °F 28.9 °F 85% 29.84 in 0.8 mi SSW 4.6 mph - 0.01 in Snow Light Snow
11:37 AM 33.1 °F 28.7 °F 30.9 °F 92% 29.83 in 0.8 mi South 4.6 mph - 0.01 in Snow Light Snow
11:44 AM 33.1 °F 30.0 °F 30.9 °F 92% 29.82 in 1.0 mi SSW 3.5 mph - 0.01 in Snow Light Snow
11:53 AM 33.1 °F 28.7 °F 30.9 °F 92% 29.81 in 1.2 mi South 4.6 mph - 0.01 in Snow Light Snow
12:09 PM 33.1 °F 30.0 °F 30.9 °F 92% 29.80 in 1.5 mi South 3.5 mph - 0.01 in Snow Light Snow
12:21 PM 33.1 °F 28.7 °F 30.9 °F 92% 29.80 in 1.2 mi South 4.6 mph - 0.01 in Snow Light Snow
12:47 PM 33.8 °F 27.7 °F 30.2 °F 87% 29.80 in 3.0 mi SW 6.9 mph - 0.01 in   Overcast
12:53 PM 33.1 °F 26.9 °F 30.0 °F 89% 29.78 in 3.0 mi SSW 6.9 mph - 0.01 in   Overcast
1:26 PM 33.1 °F 26.1 °F 30.0 °F 89% 29.79 in 3.0 mi SW 8.1 mph - 0.00 in Snow Light Snow
1:33 PM 33.1 °F 25.5 °F 30.0 °F 89% 29.78 in 2.5 mi SW 9.2 mph - 0.00 in Snow Light Snow
1:40 PM 33.1 °F 27.7 °F 30.0 °F 89% 29.76 in 2.5 mi SW 5.8 mph - 0.00 in Snow Light Snow
1:45 PM 33.1 °F 26.1 °F 30.0 °F 89% 29.77 in 1.8 mi SW 8.1 mph - 0.00 in Snow Light Snow
1:53 PM 33.1 °F 26.1 °F 30.0 °F 89% 29.78 in 1.5 mi WSW 8.1 mph - 0.00 in Snow Light Snow
2:09 PM 33.1 °F 26.9 °F 30.0 °F 89% 29.79 in 1.5 mi WSW 6.9 mph - 0.00 in Snow Light Snow
2:41 PM 33.1 °F 25.5 °F 30.0 °F 89% 29.79 in 1.2 mi WSW 9.2 mph - 0.00 in Snow Light Snow
2:48 PM 33.8 °F 28.6 °F 30.2 °F 87% 29.78 in 0.8 mi West 5.8 mph - 0.01 in Snow Light Snow
2:49 PM 33.8 °F 28.6 °F 30.2 °F 87% 29.78 in 0.8 mi West 5.8 mph - 0.01 in Snow Light Snow
2:53 PM 33.1 °F 26.9 °F 30.0 °F 89% 29.78 in 0.8 mi WNW 6.9 mph - 0.01 in Snow Light Snow
3:09 PM 32.0 °F 24.8 °F 28.9 °F 88% 29.78 in 2.0 mi WNW 8.1 mph - 0.00 in Snow Light Snow
3:21 PM 32.0 °F 24.8 °F 28.9 °F 88% 29.78 in 1.5 mi WNW 8.1 mph - 0.00 in Snow Light Snow
3:34 PM 32.0 °F 25.6 °F 28.9 °F 88% 29.78 in 0.5 mi NW 6.9 mph - 0.01 in Fog , Snow Snow
3:45 PM 30.9 °F 23.5 °F 28.9 °F 92% 29.79 in 1.0 mi NW 8.1 mph - 0.01 in Snow Light Snow
3:51 PM 30.2 °F 21.3 °F 28.4 °F 93% 29.80 in 3.0 mi NW 10.4 mph - 0.01 in Snow Light Snow
3:53 PM 30.9 °F 23.5 °F 28.0 °F 89% 29.79 in 3.0 mi NW 8.1 mph - 0.01 in Snow Light Snow
4:25 PM 30.9 °F 22.8 °F 28.0 °F 89% 29.81 in 2.5 mi West 9.2 mph - 0.00 in Snow Light Snow
4:34 PM 30.9 °F 23.5 °F 28.0 °F 89% 29.82 in 5.0 mi WNW 8.1 mph - 0.00 in Snow Light Snow
4:42 PM 30.9 °F 21.7 °F 27.0 °F 85% 29.82 in 5.0 mi WNW 11.5 mph - 0.00 in Snow Light Snow
4:53 PM 30.9 °F 21.2 °F 27.0 °F 85% 29.82 in 4.0 mi WNW 12.7 mph - 0.00 in Snow Light Snow
4:57 PM 30.9 °F 22.8 °F 27.0 °F 85% 29.82 in 2.5 mi WNW 9.2 mph - 0.00 in Snow Light Snow
5:02 PM 30.9 °F 24.3 °F 27.0 °F 85% 29.82 in 3.0 mi West 6.9 mph - 0.00 in Snow Light Snow
5:11 PM 30.9 °F 24.3 °F 27.0 °F 85% 29.82 in 9.0 mi WSW 6.9 mph - 0.00 in   Overcast
5:53 PM 30.0 °F 21.1 °F 23.0 °F 75% 29.82 in 10.0 mi West 10.4 mph - 0.00 in   Mostly Cloudy
6:53 PM 28.9 °F 18.6 °F 21.9 °F 75% 29.84 in 10.0 mi West 12.7 mph 19.6 mph N/A   Clear
7:53 PM 28.0 °F 17.5 °F 18.0 °F 66% 29.86 in 10.0 mi West 12.7 mph - N/A   Clear
8:53 PM 28.0 °F 18.1 °F 16.0 °F 61% 29.88 in 10.0 mi West 11.5 mph - N/A   Clear
9:53 PM 27.0 °F 15.6 °F 12.9 °F 56% 29.91 in 10.0 mi West 13.8 mph 21.9 mph N/A   Clear
10:53 PM 26.1 °F 14.0 °F 10.9 °F 53% 29.95 in 10.0 mi West 15.0 mph - N/A   Clear
11:53 PM 25.0 °F 15.5 °F 10.9 °F 55% 29.97 in 10.0 mi West 9.2 mph - N/A   Clear